Regional Weather Roundup
Issued by NWS Portland, ME

Home | Current Version | Previous Version | Text Only | Print | Product List | Glossary On
Versions: 1 2 3 4 5 6 7 8 9 10 11 12 13 14 15 16 17 18 19 20 21 22 23 24 25 26 27 28 29 30 31 32 33 34 35 36 37 38 39 40 41 42 43 44 45 46 47 48 49 50
000
ASUS41 KGYX 260210
RWRGYX
WEATHER ROUNDUP FOR MAINE AND NEW HAMPSHIRE
NATIONAL WEATHER SERVICE GRAY ME
1000 PM EDT FRI MAY 25 2018

MEZ002-005-006-010-012-015-018-020-021-024-026-027-029-260300-
MAINE

CITY           SKY/WX    TMP DP  RH WIND       PRES   REMARKS
PORTLAND       CLOUDY    78  51  38 SW6       29.68S
SANFORD        FAIR      77  51  40 W9        29.71S
BAR HARBOR     FAIR      63  53  70 SW9       29.63R
WISCASSET      FAIR      73  54  51 SW3       29.67R
ROCKLAND       FAIR      68  55  63 SW5       29.65S
FRYEBURG       FAIR      75  53  46 W5        29.70S
LEWISTONAUBURN FAIR      75  54  47 VRB6      29.68R
AUGUSTA        FAIR      76  54  46 W13       29.66R
WATERVILLE     FAIR      73  57  57 SW6       29.60F
BANGOR         MOCLDY    75  57  53 W5        29.60F
GREENVILLE       N/A     69  57  65 VRB3      29.63S
MILLINOCKET    FAIR      67  57  70 CALM      29.60R
HOULTON        MOCLDY    60  60 100 SW5       29.57R
PRESQUE ISLE   CLOUDY    61  59  93 CALM      29.57F
FRENCHVILLE    CLOUDY    67  44  43 CALM      29.56S
CARIBOU        MOCLDY    63  59  87 S3        29.56S
$$

NHZ002-005-008-009-011-012-014-260300-
NEW HAMPSHIRE

CITY           SKY/WX    TMP DP  RH WIND       PRES   REMARKS
PORTSMOUTH     MOCLDY    76  49  38 SW3       29.70S
ROCHESTER      FAIR      78  49  35 VRB5      29.71S
NASHUA         CLOUDY    75  52  44 CALM      29.76R
MANCHESTER     CLOUDY    81  48  31 SW5       29.73S
CONCORD        CLOUDY    79  49  34 W5        29.74S
LACONIA        CLOUDY    75  54  47 W8        29.74F
PLYMOUTH       CLOUDY    74  53  48 CALM      29.74S
BERLIN         MOCLDY    73  55  53 VRB6      29.72R
WHITEFIELD     CLOUDY    72  56  57 W10       29.75R
JAFFREY        FAIR      77  48  35 W7        29.80R
KEENE          FAIR      68  53  58 S3        29.78R
LEBANON        MOCLDY    67  58  72 CALM      29.75F
MT WASHINGTON  LGT RAIN  46  46 100 W51G61      N/A  VSB 0
$$

VTZ005-007-008-260300-
VERMONT

CITY           SKY/WX    TMP DP  RH WIND       PRES   REMARKS
ST JOHNSBURY     N/A     71  56  58 MISG      29.71F
MONTPELIER     MOCLDY    66  57  72 CALM      29.80S
BURLINGTON     LGT RAIN  66  61  84 E6        29.74R
$$

MAZ007-012-024-CTZ003-RIZ002-NYZ038-NYZ072-260300-
SOUTHERN NEW ENGLAND AND NY

CITY           SKY/WX    TMP DP  RH WIND       PRES   REMARKS
BOSTON         CLOUDY    76  55  48 SW14      29.75R
WORCESTER      FAIR      70  55  59 SW12      29.81R
NANTUCKET      FAIR      56  54  93 SW12      29.85S
PROVIDENCE     MOCLDY    71  58  63 SW12      29.81S
HARTFORD       FAIR      73  59  61 S6        29.79R
ALBANY         FAIR      71  53  52 S3        29.78R
NEW YORK CITY  FAIR      82  59  45 SW16      29.84R
$$

ANZ081-ANZ082-ANZ150-NHZ014-MEZ023>029-260300-
COASTAL MARINE OBSERVATIONS

STATION/POSITION TIME  TEMP    WIND        PRES    WAVE
                       AIR SEA DIR/SP/G            HT/PER
                 (UTC) (F)     (DEG/KT/KT) (MB)    (FT/S)
MOUNT DESERT ROC 0200   55     230/ 19/ 19 1003.8F
MATINICUS ROCK   0100   59     240/ 22/ 24 1003.8R
ISLE OF SHOALS   0100   81     260/ 20/ 21 1005.4S
JEFFREYS LEDGE   0136      53                N/A     3/ 5
CASHES LEDGE BUO 0150   56 51              1005.2S   4/ 6
$$

.............KEY..............
   WCI - WIND CHILL
   TC  - TEMPERATURE IN CELSIUS
   VSB - VISIBILITY IN MILES
   HX  - HEAT INDEX
   FAIR- INDICATES FEW OR NO CLOUDS BELOW 12,000 FT, WITH NO
         SIGNIFICANT WEATHER AND/OR OBSTRUCTIONS TO VISIBILITY.





USA.gov is the U.S. government's official web portal to all federal, state and local government web resources and services.